Simultaneous Nadir Overpasses (SNOs) Predictions

Prediction of SNOs between GOES-16 and AQUA Satellite Orbit:

Table of predicted SNOs for the next 14.0 days since TLE Epoch: 2/1/2025
Index Date Time (GOES-16) GOES-16 Lat,Lon AQUA Lat,Lon Distance(km) Time Diff (sec)
1 02/01/2025 19:19:38 0.01, -75.19 0.62, -72.28 330.12 80
2 02/02/2025 07:39:03 -0.01, -75.21 0.39, -76.98 201.95 80
3 02/04/2025 07:17:06 -0.01, -75.24 -0.66, -72.26 338.82 80
4 02/04/2025 19:36:40 0.01, -75.24 -0.35, -76.99 199.38 80
5 02/06/2025 19:20:01 0.02, -75.27 0.67, -72.27 342.43 80
6 02/07/2025 07:39:25 -0.02, -75.30 0.35, -76.95 188.79 80
7 02/09/2025 07:17:25 -0.03, -75.34 -0.71, -72.23 353.98 80
8 02/09/2025 19:36:57 0.03, -75.33 -0.31, -76.95 183.91 80
9 02/11/2025 19:20:16 0.03, -75.39 0.72, -72.21 361.01 80
10 02/12/2025 07:39:39 -0.03, -75.42 0.26, -76.91 168.96 80
11 02/14/2025 07:17:35 -0.04, -75.48 -0.75, -72.16 377.75 80
12 02/14/2025 19:37:07 0.04, -75.48 -0.28, -76.88 159.44 80
